Rifle, CO

3:16 PM MST on November 18, 2017 (GMT -0700)
Garfield County Regional

Weather History for KRIL - October, 2012

Change the Weather History Date:

Saturday, October 27, 2012

  Actual Average Record
Temperature  
Mean Temperature 41 °F 44 °F  
Max Temperature 53 °F 59 °F 76 °F (1944)
Min Temperature 29 °F 30 °F 16 °F (1967)
Degree Days  
Heating Degree Days 24 21  
Month to date heating degree days 383 412  
Since 1 July heating degree days 468 558  
Cooling Degree Days 0 0  
Month to date cooling degree days 0 0  
Year to date cooling degree days 809 541  
Moisture  
Dew Point 20 °F    
Average Humidity 50    
Maximum Humidity 78    
Minimum Humidity 21    
Precipitation  
Precipitation 0.00 in 0.06 in 0.68 in (1982)
Month to date precipitation 0.65 1.64  
Year to date precipitation 6.80 12.11  
Sea Level Pressure  
Sea Level Pressure 30.23 in    
Wind  
Wind Speed 3 mph (SW)    
Max Wind Speed 15 mph    
Max Gust Speed 18 mph    
Visibility 10 miles    
Events      
T = Trace of Precipitation, MM = Missing Value Source: NWS Daily Summary

Daily Weather History Graph

Daily Weather History Graph

Search for Another Location

Airport or City:

Trip Planner

Search our weather history database for the weather conditions in past years. The results will help you decide how hot, cold, wet, or windy it might be!

Date:

Astronomy

Oct. 27, 2012 Rise Set
Actual Time 7:34 AM MDT 6:14 PM MDT
Civil Twilight 7:06 AM MDT 6:42 PM MDT
Nautical Twilight 6:35 AM MDT 7:13 PM MDT
Astronomical Twilight 6:03 AM MDT 7:45 PM MDT
Moon 5:01 PM MDT (10/27) 5:32 AM MDT (10/27)
Length of Visible Light 11h 35m
Length of Day
10h 40m
Waxing Gibbous, 96% of the Moon is Illuminated
Oct 27
Waxing Gibbous
Oct 29
Full
Nov 6
Last Quarter
Nov 13
New
Nov 20
First Quarter

Hourly Weather History & Observations

Time (MDT) Temp. Windchill Dew Point Humidity Pressure Visibility Wind Dir Wind Speed Gust Speed Precip Events Conditions
12:53 AM 32.0 °F 27.5 °F 21.9 °F 66% 30.26 in 10.0 mi WSW 4.6 mph - N/A   Overcast
1:53 AM 32.0 °F - 23.0 °F 69% 30.25 in 10.0 mi Calm Calm - N/A   Overcast
2:53 AM 32.0 °F 28.7 °F 23.0 °F 69% 30.24 in 10.0 mi NNE 3.5 mph - N/A   Overcast
3:53 AM 30.9 °F 27.5 °F 23.0 °F 72% 30.23 in 10.0 mi SW 3.5 mph - N/A   Overcast
4:53 AM 30.0 °F 26.5 °F 21.9 °F 72% 30.24 in 10.0 mi SSW 3.5 mph - N/A   Overcast
5:53 AM 30.0 °F - 24.1 °F 79% 30.26 in 10.0 mi Calm Calm - N/A   Overcast
6:53 AM 30.9 °F - 23.0 °F 72% 30.28 in 10.0 mi Calm Calm - N/A   Overcast
7:53 AM 30.9 °F - 24.1 °F 76% 30.31 in 10.0 mi Calm Calm - N/A   Overcast
8:53 AM 32.0 °F - 24.1 °F 73% 30.32 in 10.0 mi Calm Calm - N/A   Overcast
9:53 AM 33.1 °F - 23.0 °F 66% 30.33 in 10.0 mi Calm Calm - N/A   Partly Cloudy
10:53 AM 35.1 °F - 21.9 °F 59% 30.31 in 10.0 mi Calm Calm - N/A   Clear
12:53 PM 43.0 °F - 18.0 °F 37% 30.23 in 10.0 mi Calm Calm - N/A   Clear
1:53 PM 46.9 °F - 15.1 °F 28% 30.18 in 10.0 mi Calm Calm - N/A   Clear
2:53 PM 50.0 °F - 16.0 °F 26% 30.15 in 10.0 mi West 6.9 mph - N/A   Clear
3:53 PM 52.0 °F - 12.9 °F 21% 30.13 in 10.0 mi West 10.4 mph - N/A   Clear
4:53 PM 52.0 °F - 12.9 °F 21% 30.13 in 10.0 mi WSW 8.1 mph - N/A   Clear
5:53 PM 50.0 °F - 14.0 °F 24% 30.13 in 10.0 mi WSW 6.9 mph - N/A   Clear
6:53 PM 48.0 °F - 15.1 °F 27% 30.15 in 10.0 mi WSW 10.4 mph - N/A   Clear
7:53 PM 39.9 °F 33.9 °F 19.9 °F 45% 30.21 in 10.0 mi SE 9.2 mph - N/A   Scattered Clouds
8:53 PM 41.0 °F 38.0 °F 19.9 °F 43% 30.21 in 10.0 mi ESE 4.6 mph - N/A   Overcast
10:53 PM 39.9 °F - 23.0 °F 51% 30.22 in 10.0 mi Calm Calm - N/A   Overcast
11:53 PM 39.0 °F 35.7 °F 21.9 °F 50% 30.19 in 10.0 mi SW 4.6 mph - N/A   Overcast